Washington, Georgia, United States (30673)
Lat: 33.74N, Lon: 82.74W
Wx Zone: GAZ039
Local Info
Past Weather Observations for Today

NOTE: This archive is for the closest National Weather Service station to Washington. Information may differ from the station used for current weather conditions.

Click here for Long-term Archive

Time Weather Temperature Dewpoint Humidity Pressure Winds Precip Visibility
12:55
Mostly Cloudy
66°F / 19°C 41°F / 5°C 40% 29.74 in
(1007 mb)
W 17.3 mph
(W 28 kph)
- 10SM
12:35
Mostly Cloudy
66°F / 19°C 43°F / 6°C 43% 29.74 in
(1007 mb)
NW 13.8 mph
(NW 22 kph)
- 10SM
12:15
Mostly Cloudy
66°F / 19°C 43°F / 6°C 43% 29.74 in
(1007 mb)
W 18.4 mph
(W 30 kph)
- 10SM
11:55
Mostly Cloudy
64°F / 18°C 45°F / 7°C 49% 29.74 in
(1007 mb)
NW 16.1 mph
(NW 26 kph)
- 10SM
11:35
Mostly Cloudy
66°F / 19°C 45°F / 7°C 46% 29.77 in
(1008 mb)
WNW 16.1 mph
(WNW 26 kph)
- 10SM
11:15
Partly Cloudy
64°F / 18°C 45°F / 7°C 49% 29.77 in
(1008 mb)
WNW 13.8 mph
(WNW 22 kph)
- 10SM
10:55
Partly Cloudy
64°F / 18°C 45°F / 7°C 49% 29.77 in
(1008 mb)
NW 17.3 mph
(NW 28 kph)
- 10SM
10:35
Partly Cloudy
64°F / 18°C 46°F / 8°C 52% 29.77 in
(1008 mb)
NW 12.7 mph
(NW 20 kph)
- 10SM
10:15
Partly Cloudy
63°F / 17°C 46°F / 8°C 56% 29.77 in
(1008 mb)
NW 11.5 mph
(NW 19 kph)
- 10SM
09:55
Partly Cloudy
64°F / 18°C 48°F / 9°C 56% 29.77 in
(1008 mb)
NW 12.7 mph
(NW 20 kph)
- 10SM
09:35
Clear
63°F / 17°C 48°F / 9°C 59% 29.74 in
(1007 mb)
WNW 16.1 mph
(WNW 26 kph)
- 10SM
09:15
Clear
63°F / 17°C 48°F / 9°C 59% 29.74 in
(1007 mb)
WNW 13.8 mph
(WNW 22 kph)
- 10SM
08:55
Clear
61°F / 16°C 48°F / 9°C 63% 29.74 in
(1007 mb)
W 10.4 mph
(W 17 kph)
- 10SM
08:35
Clear
61°F / 16°C 50°F / 10°C 68% 29.74 in
(1007 mb)
NW 11.5 mph
(NW 19 kph)
- 10SM
08:15
Clear
59°F / 15°C 50°F / 10°C 72% 29.74 in
(1007 mb)
NW 10.4 mph
(NW 17 kph)
- 10SM
07:55
Clear
59°F / 15°C 50°F / 10°C 72% 29.74 in
(1007 mb)
W 13.8 mph
(W 22 kph)
- 10SM
07:35
Clear
57°F / 14°C 50°F / 10°C 77% 29.74 in
(1007 mb)
W 13.8 mph
(W 22 kph)
- 10SM
07:15
Clear
55°F / 13°C 50°F / 10°C 82% 29.74 in
(1007 mb)
W 9.2 mph
(W 15 kph)
- 10SM
06:55
Clear
55°F / 13°C 50°F / 10°C 82% 29.74 in
(1007 mb)
WNW 9.2 mph
(WNW 15 kph)
- 10SM
06:35
Clear
54°F / 12°C 50°F / 10°C 88% 29.74 in
(1007 mb)
WNW 5.8 mph
(WNW 9 kph)
- 10SM
06:15
Clear
54°F / 12°C 50°F / 10°C 88% 29.71 in
(1006 mb)
W 5.8 mph
(W 9 kph)
- 10SM
05:55
Clear
54°F / 12°C 50°F / 10°C 88% 29.71 in
(1006 mb)
WNW 8.1 mph
(WNW 13 kph)
- 10SM
05:35
Clear
54°F / 12°C 50°F / 10°C 88% 29.71 in
(1006 mb)
W 9.2 mph
(W 15 kph)
- 10SM
05:15
Clear
54°F / 12°C 50°F / 10°C 88% 29.71 in
(1006 mb)
WNW 8.1 mph
(WNW 13 kph)
- 10SM
04:55
Clear
54°F / 12°C 50°F / 10°C 88% 29.71 in
(1006 mb)
W 6.9 mph
(W 11 kph)
- 10SM
04:35
Clear
54°F / 12°C 50°F / 10°C 88% 29.71 in
(1006 mb)
WNW 8.1 mph
(WNW 13 kph)
- 10SM
04:15
Clear
55°F / 13°C 50°F / 10°C 82% 29.71 in
(1006 mb)
WNW 8.1 mph
(WNW 13 kph)
- 10SM
03:55
Clear
55°F / 13°C 52°F / 11°C 88% 29.71 in
(1006 mb)
WNW 8.1 mph
(WNW 13 kph)
- 10SM
03:35
Clear
55°F / 13°C 52°F / 11°C 88% 29.71 in
(1006 mb)
W 9.2 mph
(W 15 kph)
- 10SM
03:15
Clear
57°F / 14°C 52°F / 11°C 82% 29.68 in
(1005 mb)
WNW 10.4 mph
(WNW 17 kph)
- 10SM
02:55
Clear
57°F / 14°C 52°F / 11°C 82% 29.68 in
(1005 mb)
WNW 10.4 mph
(WNW 17 kph)
- 10SM
02:35
Clear
57°F / 14°C 54°F / 12°C 88% 29.68 in
(1005 mb)
WNW 9.2 mph
(WNW 15 kph)
- 10SM
02:15
Clear
59°F / 15°C 54°F / 12°C 82% 29.68 in
(1005 mb)
W 9.2 mph
(W 15 kph)
- 10SM
01:55
Partly Cloudy
59°F / 15°C 54°F / 12°C 82% 29.71 in
(1006 mb)
WNW 9.2 mph
(WNW 15 kph)
- 10SM
01:35
Partly Cloudy
59°F / 15°C 54°F / 12°C 82% 29.71 in
(1006 mb)
WNW 8.1 mph
(WNW 13 kph)
- 10SM
01:15
Clear
59°F / 15°C 52°F / 11°C 77% 29.71 in
(1006 mb)
W 4.6 mph
(W 7 kph)
- 10SM
00:55
Clear
59°F / 15°C 52°F / 11°C 77% 29.71 in
(1006 mb)
W 4.6 mph
(W 7 kph)
- 10SM
00:35
Clear
59°F / 15°C 54°F / 12°C 82% 29.74 in
(1007 mb)
W 4.6 mph
(W 7 kph)
- 10SM
00:15
Clear
59°F / 15°C 54°F / 12°C 82% 29.74 in
(1007 mb)
SSW 4.6 mph
(SSW 7 kph)
- 10SM
Time Weather Temperature Dewpoint Humidity Pressure Winds Precip Visibility


Weather for websites

WeatherForYou.com, LLC is not responsible for any damages or problems caused by this service. Current weather conditions are obtained from the closest station including government and personal stations which may have varying degrees of accuracy. Weather forecasts are derived from the NOAA NDFD. Like all things, this site belongs to Jesus Christ... He just trusts us to maintain it. If you have any questions or comments email webmaster@weatherforyou.com

Copyright © 2016, WeatherForYou.com LLC. All rights reserved.